Location: Newark
(45.4422°N, 16.2769°E)
Time: 05:31:00
(UTC+00:00)

Explorer 7 - Pass Details

Date: 20 January 2021
Orbit: 484 x 677 km, 50.3° (Epoch: 05 March)

Event Time Altitude Azimuth Distance (km) Brightness Sun altitude
Exits shadow 04:14:59 15° 184° (S) 1,419 8.9 -22.9°
Maximum altitude 04:17:14 25° 138° (SE) 1,075 8.8 -22.6°
Drops below altitude 10° 04:20:32 10° 82° (E) 1,782 10.5 -22.0°
Sets 04:23:06 0° 69° (ENE) 2,714 11.4 -21.5°
